Munich, Germany

11:15 PM CET on March 22, 2017 (GMT +0100)
Munich

Weather History for EDDM - January, 2017

Change the Weather History Date:

Wednesday, January 11, 2017

  Actual Average Record
Temperature  
Mean Temperature 27 °F -  
Max Temperature 37 °F 36 °F 53 °F (2007)
Min Temperature 17 °F 23 °F 5 °F (2003)
Degree Days  
Heating Degree Days 38    
Moisture  
Dew Point 23 °F    
Average Humidity 87    
Maximum Humidity 100    
Minimum Humidity 70    
Precipitation  
Precipitation 0.00 in - - ()
Sea Level Pressure  
Sea Level Pressure 29.89 in    
Wind  
Wind Speed 8 mph ()    
Max Wind Speed 28 mph    
Max Gust Speed -    
Visibility 4.8 miles    
Events Rain , Snow    
Averages and records for this station are not official NWS values.
T = Trace of Precipitation, MM = Missing Value Source: Averaged Metar Reports

Daily Weather History Graph

Daily Weather History Graph

Search for Another Location

Airport or City:

Trip Planner

Search our weather history database for the weather conditions in past years. The results will help you decide how hot, cold, wet, or windy it might be!

Date:

Astronomy

Jan. 11, 2017 Rise Set
Actual Time 8:00 AM CET 4:41 PM CET
Civil Twilight 7:25 AM CET 5:17 PM CET
Nautical Twilight 6:46 AM CET 5:56 PM CET
Astronomical Twilight 6:08 AM CET 6:33 PM CET
Moon 4:01 PM CET (1/11) 6:36 AM CET (1/11)
Length of Visible Light 9h 51m
Length of Day
8h 40m
Waxing Gibbous, 99% of the Moon is Illuminated
Jan 11
Waxing Gibbous
Jan 12
Full
Jan 19
Last Quarter
Jan 28
New
Feb 4
First Quarter

Hourly Weather History & Observations

Time (CET) Temp. Windchill Dew Point Humidity Pressure Visibility Wind Dir Wind Speed Gust Speed Precip Events Conditions
12:20 AM 19.4 °F 11.5 °F 19.4 °F 100% 29.95 in 4.3 mi NNE 5.8 mph - N/A   Mostly Cloudy
12:50 AM 19.4 °F 12.8 °F 15.8 °F 86% 29.95 in 4.3 mi NNE 4.6 mph - N/A   Mostly Cloudy
1:20 AM 17.6 °F 9.3 °F 15.8 °F 93% 29.95 in 5.0 mi NNE 5.8 mph - N/A   Mostly Cloudy
1:50 AM 17.6 °F 12.3 °F 14.0 °F 86% 29.95 in 5.0 mi ENE 3.5 mph - N/A   Overcast
2:20 AM 17.6 °F 9.3 °F 14.0 °F 86% 29.98 in 5.0 mi ENE 5.8 mph - N/A   Overcast
2:50 AM 17.6 °F 10.7 °F 14.0 °F 86% 29.98 in 5.0 mi ENE 4.6 mph - N/A   Overcast
3:20 AM 17.6 °F 12.3 °F 14.0 °F 86% 29.98 in 5.0 mi NE 3.5 mph - N/A   Mostly Cloudy
3:50 AM 17.6 °F 12.3 °F 14.0 °F 86% 29.98 in 5.0 mi NE 3.5 mph - N/A   Overcast
4:20 AM 17.6 °F 10.7 °F 14.0 °F 86% 29.98 in 5.0 mi NE 4.6 mph - N/A   Overcast
4:50 AM 17.6 °F - 14.0 °F 86% 29.98 in 5.0 mi Variable 2.3 mph - N/A   Overcast
5:20 AM 17.6 °F 9.3 °F 14.0 °F 86% 29.98 in 5.0 mi ESE 5.8 mph - N/A   Overcast
5:50 AM 17.6 °F - 15.8 °F 93% 29.98 in 5.0 mi Variable 1.2 mph - N/A   Overcast
6:20 AM 17.6 °F - 14.0 °F 86% 29.98 in 5.0 mi Variable 2.3 mph - N/A   Mostly Cloudy
6:50 AM 17.6 °F - 15.8 °F 93% 29.98 in 4.3 mi Variable 2.3 mph - N/A   Mostly Cloudy
7:20 AM 19.4 °F 12.8 °F 15.8 °F 86% 29.98 in 3.7 mi ENE 4.6 mph - N/A   Mostly Cloudy
7:50 AM 19.4 °F 14.3 °F 15.8 °F 86% 29.98 in 2.8 mi East 3.5 mph - N/A Snow Light Snow Grains
8:20 AM 19.4 °F 14.3 °F 17.6 °F 93% 29.98 in 3.1 mi East 3.5 mph - N/A Snow Light Snow Grains
8:50 AM 19.4 °F 12.8 °F 17.6 °F 93% 30.01 in 2.5 mi East 4.6 mph - N/A Snow Light Snow Grains
9:20 AM 21.2 °F 13.6 °F 17.6 °F 86% 29.98 in - East 5.8 mph - N/A Snow Light Snow
9:50 AM 21.2 °F 14.9 °F 21.2 °F 100% 29.98 in - East 4.6 mph - N/A Snow Light Snow
10:20 AM 23.0 °F 17.0 °F 21.2 °F 93% 29.98 in 1.7 mi East 4.6 mph - N/A Snow Light Snow
10:50 AM 23.0 °F 17.0 °F 21.2 °F 93% 29.98 in 1.7 mi East 4.6 mph - N/A Snow Light Snow
11:20 AM 24.8 °F 19.1 °F 21.2 °F 86% 29.98 in 2.8 mi East 4.6 mph - N/A Snow Light Snow
11:50 AM 24.8 °F 19.1 °F 23.0 °F 93% 29.95 in 2.5 mi East 4.6 mph - N/A Snow Light Snow
12:20 PM 26.6 °F 20.0 °F 23.0 °F 86% 29.92 in - East 5.8 mph - N/A Snow Light Snow Grains
12:50 PM 28.4 °F - 24.8 °F 86% 29.92 in 2.8 mi Variable 2.3 mph - N/A   Mostly Cloudy
1:20 PM 30.2 °F - 26.6 °F 86% 29.89 in 3.1 mi ENE 2.3 mph - N/A   Mostly Cloudy
1:50 PM 32.0 °F - 28.4 °F 87% 29.89 in 5.6 mi Variable 1.2 mph - N/A   Mostly Cloudy
2:20 PM 35.6 °F 28.0 °F 28.4 °F 75% 29.86 in 6.2 mi WSW 10.4 mph - N/A   Mostly Cloudy
2:50 PM 35.6 °F 25.2 °F 28.4 °F 75% 29.83 in 6.2 mi WSW 18.4 mph - N/A   Mostly Cloudy
3:20 PM 35.6 °F 23.7 °F 26.6 °F 70% 29.83 in 6.2 mi WSW 24.2 mph - N/A   Mostly Cloudy
3:50 PM 35.6 °F 23.7 °F 26.6 °F 70% 29.80 in - WSW 24.2 mph - N/A   Clear
4:20 PM 35.6 °F 24.8 °F 26.6 °F 70% 29.80 in 6.2 mi WSW 19.6 mph - N/A   Mostly Cloudy
4:50 PM 35.6 °F 24.5 °F 26.6 °F 70% 29.77 in 6.2 mi SW 20.7 mph - N/A Snow Light Snow
5:20 PM 35.6 °F 25.2 °F 28.4 °F 75% 29.74 in 6.2 mi SW 18.4 mph - N/A Snow Light Snow
5:50 PM 35.6 °F 23.4 °F 30.2 °F 81% 29.74 in 2.5 mi WSW 25.3 mph - N/A Rain Rain
6:20 PM 35.6 °F 24.8 °F 32.0 °F 87% 29.74 in 3.7 mi SW 19.6 mph - N/A Rain , Snow Light Rain
6:50 PM 33.8 °F 21.9 °F 32.0 °F 93% 29.74 in 5.6 mi WSW 21.9 mph - N/A Rain , Snow Light Rain
7:20 PM 35.6 °F 23.4 °F 32.0 °F 87% 29.74 in 6.2 mi WSW 25.3 mph - N/A Rain Light Drizzle
7:50 PM 35.6 °F 23.4 °F 32.0 °F 87% 29.74 in 6.2 mi WSW 25.3 mph - N/A   Light Drizzle
8:20 PM 35.6 °F 23.0 °F 32.0 °F 87% 29.74 in 6.2 mi WSW 27.6 mph - N/A Rain Light Drizzle
8:50 PM 35.6 °F 23.4 °F 33.8 °F 93% 29.77 in 6.2 mi WSW 25.3 mph - N/A Rain Light Drizzle
9:20 PM 35.6 °F 23.2 °F 33.8 °F 93% 29.77 in 6.2 mi WSW 26.5 mph - N/A Rain Light Drizzle
9:50 PM 35.6 °F 23.2 °F 33.8 °F 93% 29.77 in 6.2 mi West 26.5 mph - N/A   Mostly Cloudy
10:20 PM 37.4 °F 26.9 °F 33.8 °F 87% 29.80 in 6.2 mi West 20.7 mph - N/A   Mostly Cloudy
10:50 PM 37.4 °F 26.9 °F 33.8 °F 87% 29.80 in 6.2 mi West 20.7 mph - N/A Rain Light Drizzle
11:20 PM 37.4 °F 27.5 °F 33.8 °F 87% 29.83 in 6.2 mi West 18.4 mph - N/A Rain Light Rain
11:50 PM 37.4 °F 27.5 °F 35.6 °F 93% 29.83 in 6.2 mi West 18.4 mph - N/A Rain Light Rain